Weather History for Kenansville, NC

Change the Weather History Date:

Saturday, March 1, 2014

  Actual Average (KGSB) Record (KGSB)
Temperature  
Mean Temperature 41 °F -  
Max Temperature 52 °F 59 °F 82 °F (1997)
Min Temperature 31 °F 39 °F 24 °F (2002)
Degree Days  
Heating Degree Days 24    
Moisture  
Dew Point 29 °F    
Average Humidity 69    
Maximum Humidity 99    
Minimum Humidity 54    
Precipitation  
Precipitation 0.00 in - - ()
Sea Level Pressure  
Sea Level Pressure 30.30 in    
Wind  
Wind Speed 4 mph (North)    
Max Wind Speed 10 mph    
Max Gust Speed -    
Visibility 9 miles    
Events      
Averages and records for this station are not official NWS values.
T = Trace of Precipitation, MM = Missing Value Source: NWS Daily Summary

Daily Weather History Graph

Daily Weather History Graph

Search for Another Location

Airport:

Trip Planner

Search our weather history database for the weather conditions in past years. The results will help you decide how hot, cold, wet, or windy it might be!

Date:

Astronomy

Mar. 01, 2014 Rise Set
Actual Time 6:41 AM EST 6:07 PM EST
Civil Twilight 6:15 AM EST 6:33 PM EST
Nautical Twilight 5:46 AM EST 7:02 PM EST
Astronomical Twilight 5:17 AM EST 7:31 PM EST
Moon 6:35 AM EST (3/1) 6:49 PM EST (3/1)
Length of Visible Light 12h 17m
Length of Day
11h 26m
New Moon, 0% of the Moon is Illuminated
Mar 1
New Moon
Mar 8
First Quarter
Mar 16
Full
Mar 23
Last Quarter
Mar 30
New

Hourly Weather History & Observations

Time (EST) Temp. Windchill Dew Point Humidity Pressure Visibility Wind Dir Wind Speed Gust Speed Precip Events Conditions
12:15 AM 31.6 °F 27.0 °F 19.4 °F 61% 30.31 in 10.0 mi NNE 4.6 mph - N/A   Overcast
12:35 AM 31.6 °F 27.0 °F 19.4 °F 61% 30.31 in 10.0 mi NNE 4.6 mph - N/A   Overcast
12:55 AM 31.6 °F 25.1 °F 20.3 °F 63% 30.31 in 10.0 mi NNE 6.9 mph - N/A   Overcast
1:15 AM 31.5 °F 24.2 °F 19.4 °F 61% 30.31 in 10.0 mi NNE 8.1 mph - N/A   Overcast
1:35 AM 31.5 °F 26.8 °F 19.2 °F 61% 30.31 in 10.0 mi NNE 4.6 mph - N/A   Overcast
1:55 AM 31.6 °F 24.4 °F 20.1 °F 62% 30.31 in 10.0 mi North 8.1 mph - N/A   Overcast
2:15 AM 31.8 °F 23.9 °F 20.1 °F 62% 30.31 in 10.0 mi NNE 9.2 mph - N/A   Overcast
2:35 AM 32.0 °F 23.6 °F 20.3 °F 62% 30.31 in 10.0 mi NNE 10.4 mph - N/A   Overcast
2:50 AM 32.0 °F 27.5 °F 19.4 °F 60% 30.30 in 10.0 mi NNE 4.6 mph - N/A   Overcast
3:15 AM 32.0 °F 28.7 °F 18.9 °F 58% 30.30 in 10.0 mi NNE 3.5 mph - N/A   Overcast
3:35 AM 32.0 °F 26.4 °F 19.6 °F 60% 30.30 in 10.0 mi North 5.8 mph - N/A   Overcast
3:55 AM 32.0 °F 27.5 °F 19.0 °F 59% 30.30 in 10.0 mi North 4.6 mph - N/A   Overcast
4:15 AM 32.0 °F 28.7 °F 18.7 °F 58% 30.31 in 10.0 mi North 3.5 mph - N/A   Overcast
4:35 AM 32.0 °F 27.5 °F 19.2 °F 59% 30.32 in 10.0 mi North 4.6 mph - N/A   Overcast
4:55 AM 32.0 °F 26.4 °F 19.8 °F 61% 30.31 in 10.0 mi NNE 5.8 mph - N/A   Overcast
5:15 AM 32.0 °F 27.5 °F 19.6 °F 60% 30.31 in 10.0 mi NNE 4.6 mph - N/A   Overcast
5:35 AM 32.0 °F 25.6 °F 20.5 °F 63% 30.31 in 10.0 mi North 6.9 mph - N/A   Overcast
5:55 AM 32.0 °F 26.4 °F 20.5 °F 63% 30.31 in 10.0 mi NNE 5.8 mph - N/A   Overcast
6:15 AM 32.0 °F 27.5 °F 21.4 °F 65% 30.31 in 10.0 mi NNE 4.6 mph - N/A   Overcast
6:35 AM 32.0 °F 26.4 °F 21.2 °F 64% 30.32 in 10.0 mi North 5.8 mph - N/A   Overcast
6:55 AM 32.0 °F 26.4 °F 21.9 °F 66% 30.32 in 10.0 mi North 5.8 mph - N/A   Overcast
7:15 AM 32.2 °F 25.8 °F 23.0 °F 69% 30.33 in 10.0 mi North 6.9 mph - N/A   Overcast
7:30 AM 32.2 °F 27.7 °F 22.5 °F 67% 30.34 in 10.0 mi North 4.6 mph - N/A   Overcast
7:55 AM 32.9 °F 27.5 °F 22.8 °F 66% 30.34 in 10.0 mi NNE 5.8 mph - N/A   Overcast
8:15 AM 33.8 °F 28.6 °F 23.4 °F 66% 30.35 in 10.0 mi NNE 5.8 mph - N/A   Overcast
8:35 AM 34.7 °F 29.6 °F 23.5 °F 64% 30.33 in 10.0 mi NE 5.8 mph - N/A   Overcast
8:55 AM 35.6 °F 30.7 °F 23.2 °F 61% 30.34 in 10.0 mi NNE 5.8 mph - N/A   Overcast
9:15 AM 36.7 °F 34.1 °F 23.0 °F 58% 30.34 in 10.0 mi NNE 3.5 mph - N/A   Overcast
9:35 AM 37.9 °F 32.7 °F 23.4 °F 56% 30.35 in 10.0 mi North 6.9 mph - N/A   Overcast
9:55 AM 39.2 °F 34.2 °F 23.7 °F 54% 30.34 in 10.0 mi North 6.9 mph - N/A   Overcast
10:15 AM 40.1 °F 34.7 °F 24.8 °F 54% 30.35 in 10.0 mi North 8.1 mph - N/A   Overcast
10:35 AM 41.0 °F 36.4 °F 25.3 °F 54% 30.35 in 10.0 mi NNW 6.9 mph - N/A   Overcast
10:55 AM 41.2 °F - 26.2 °F 55% 30.35 in 10.0 mi Calm Calm - N/A   Overcast
11:15 AM 42.1 °F 39.2 °F 28.2 °F 58% 30.36 in 10.0 mi WNW 4.6 mph - N/A   Overcast
11:35 AM 42.6 °F 39.9 °F 28.9 °F 58% 30.35 in 10.0 mi NNW 4.6 mph - N/A   Overcast
11:55 AM 42.1 °F 38.4 °F 30.9 °F 65% 30.35 in 7.0 mi NW 5.8 mph - N/A   Overcast
12:15 PM 41.5 °F 37.8 °F 32.0 °F 69% 30.35 in 7.0 mi NW 5.8 mph - N/A   Overcast
12:35 PM 41.5 °F 37.1 °F 32.5 °F 70% 30.33 in 7.0 mi NW 6.9 mph - N/A   Overcast
12:55 PM 42.1 °F 38.4 °F 32.7 °F 69% 30.32 in 7.0 mi North 5.8 mph - N/A   Overcast
1:15 PM 42.8 °F 40.1 °F 32.9 °F 68% 30.31 in 10.0 mi North 4.6 mph - N/A   Overcast
1:35 PM 43.9 °F - 33.3 °F 66% 30.29 in 7.0 mi Calm Calm - N/A   Overcast
1:55 PM 45.9 °F 43.6 °F 33.4 °F 62% 30.28 in 10.0 mi North 4.6 mph - N/A   Overcast
2:15 PM 47.8 °F - 34.0 °F 59% 30.27 in 7.0 mi NNW 4.6 mph - N/A   Mostly Cloudy
2:35 PM 48.7 °F - 34.2 °F 57% 30.26 in 10.0 mi North 3.5 mph - N/A   Scattered Clouds
2:55 PM 49.6 °F - 34.7 °F 56% 30.25 in 7.0 mi NNE 3.5 mph - N/A   Mostly Cloudy
3:15 PM 50.9 °F - 35.1 °F 55% 30.25 in 7.0 mi NW 3.5 mph - N/A   Mostly Cloudy
3:35 PM 51.1 °F - 35.4 °F 55% 30.25 in 7.0 mi Calm Calm - N/A   Scattered Clouds
3:55 PM 51.8 °F - 35.8 °F 54% 30.25 in 10.0 mi NNW 3.5 mph - N/A   Mostly Cloudy
4:15 PM 51.3 °F - 36.3 °F 57% 30.25 in 10.0 mi NW 3.5 mph - N/A   Overcast
4:35 PM 51.6 °F - 36.5 °F 56% 30.25 in 10.0 mi Calm Calm - N/A   Mostly Cloudy
4:55 PM 51.1 °F - 36.5 °F 57% 30.24 in 10.0 mi Calm Calm - N/A   Mostly Cloudy
5:15 PM 50.9 °F - 37.2 °F 59% 30.25 in 10.0 mi Calm Calm - N/A   Overcast
5:35 PM 50.4 °F - 37.4 °F 61% 30.26 in 10.0 mi North 3.5 mph - N/A   Overcast
5:55 PM 49.3 °F - 38.5 °F 66% 30.26 in 10.0 mi Calm Calm - N/A   Mostly Cloudy
6:15 PM 47.5 °F - 39.7 °F 75% 30.26 in 10.0 mi Calm Calm - N/A   Overcast
6:35 PM 45.3 °F - 40.1 °F 82% 30.26 in 10.0 mi Calm Calm - N/A   Mostly Cloudy
6:55 PM 43.9 °F - 39.6 °F 85% 30.26 in 10.0 mi Calm Calm - N/A   Mostly Cloudy
7:15 PM 42.8 °F - 39.2 °F 87% 30.26 in 10.0 mi Calm Calm - N/A   Mostly Cloudy
7:35 PM 42.1 °F - 38.7 °F 88% 30.27 in 10.0 mi Calm Calm - N/A   Mostly Cloudy
7:55 PM 41.0 °F - 38.5 °F 91% 30.27 in 7.0 mi Calm Calm - N/A   Scattered Clouds
8:15 PM 39.6 °F - 37.9 °F 94% 30.27 in 7.0 mi Calm Calm - N/A   Clear
8:35 PM 38.8 °F - 37.4 °F 95% 30.28 in 7.0 mi Calm Calm - N/A   Clear
8:55 PM 37.9 °F - 36.9 °F 96% 30.28 in 7.0 mi Calm Calm - N/A   Clear
9:15 PM 37.8 °F - 36.7 °F 96% 30.27 in 5.0 mi Calm Calm - N/A   Clear
9:35 PM 37.4 °F - 36.5 °F 97% 30.27 in 5.0 mi Calm Calm - N/A   Clear
9:55 PM 36.5 °F - 35.8 °F 97% 30.27 in 5.0 mi Calm Calm - N/A   Clear
10:15 PM 35.6 °F - 34.7 °F 97% 30.27 in 5.0 mi Calm Calm - N/A   Clear
10:35 PM 35.6 °F - 34.7 °F 97% 30.26 in 5.0 mi Calm Calm - N/A   Clear
10:55 PM 35.4 °F - 34.7 °F 97% 30.26 in 4.0 mi Calm Calm - N/A   Clear
11:15 PM 35.1 °F - 34.7 °F 99% 30.26 in 5.0 mi Calm Calm - N/A   Clear
11:35 PM 35.1 °F - 34.7 °F 99% 30.26 in 4.0 mi Calm Calm - N/A   Clear
11:55 PM 34.5 °F - 34.2 °F 99% 30.25 in 4.0 mi Calm Calm - N/A   Clear